Location: Unspecified
(0.0000°N, 0.0000°E)
Time: 18:57:34
(UTC+00:00)

deb r/b Ablestar - Pass Details

Date: 18 November 2025
Orbit: 783 x 882 km, 66.7° (Epoch: 05 December)

Event Time Altitude Azimuth Distance (km) Brightness Sun altitude
Exits shadow 04:27:09 16° 239° (WSW) 1,948 ? -18.4°
Drops below altitude 10° 04:29:45 10° 210° (SSW) 2,366 ? -17.8°
Sets 04:33:04 0° 190° (S) 3,316 ? -17.0°
